Location: Le Petit-Vavre
(46.5081°N, 1.5239°E)
Time: 07:25:44
(UTC+00:00)

Cosmos 1666 - Pass Details

Date: 03 March 2021
Orbit: 497 x 518 km, 82.5° (Epoch: 18 April)

Event Time Altitude Azimuth Distance (km) Brightness Sun altitude
Rises 18:28:27 0° 149° (SSE) 2,574 5.9 -8.6°
Reaches altitude 10° 18:31:05 10° 129° (SE) 1,698 4.9 -9.1°
Maximum altitude 18:33:34 17° 87° (E) 1,314 4.1 -9.5°
Drops below altitude 10° 18:36:04 10° 45° (NE) 1,712 4.9 -9.9°
Sets 18:38:43 0° 25° (NNE) 2,605 6.0 -10.4°
